Culdrose, United Kingdom

12:25 AM BST on April 25, 2017 (GMT +0100)
Culdrose Navy

Weather History for EGDR - October, 2011

Change the Weather History Date:

Thursday, October 27, 2011

  Actual Average Record
Temperature  
Mean Temperature 53 °F -  
Max Temperature 56 °F 52 °F 62 °F (2005)
Min Temperature 48 °F 44 °F 32 °F (2012)
Degree Days  
Heating Degree Days 12    
Growing Degree Days 3 (Base 50)    
Moisture  
Dew Point 50 °F    
Average Humidity 91    
Maximum Humidity 100    
Minimum Humidity 82    
Precipitation  
Precipitation 0.08 in - - ()
Sea Level Pressure  
Sea Level Pressure 29.73 in    
Wind  
Wind Speed 9 mph ()    
Max Wind Speed 16 mph    
Max Gust Speed 28 mph    
Visibility 5.2 miles    
Events Rain    
Averages and records for this station are not official NWS values.
T = Trace of Precipitation, MM = Missing Value Source: Averaged Metar Reports

Daily Weather History Graph

Daily Weather History Graph

Search for Another Location

Airport or City:

Trip Planner

Search our weather history database for the weather conditions in past years. The results will help you decide how hot, cold, wet, or windy it might be!

Date:

Astronomy

Oct. 27, 2011 Rise Set
Actual Time 8:01 AM BST 6:07 PM BST
Civil Twilight 7:28 AM BST 6:40 PM BST
Nautical Twilight 6:50 AM BST 7:18 PM BST
Astronomical Twilight 6:12 AM BST 7:55 PM BST
Moon 8:58 AM BST (10/27) 6:11 PM BST (10/27)
Length of Visible Light 11h 12m
Length of Day
10h 05m
New Moon, 1% of the Moon is Illuminated
Oct 27
New Moon
Nov 2
First Quarter
Nov 10
Full
Nov 18
Last Quarter
Nov 25
New

Hourly Weather History & Observations

Time (BST) Temp. Dew Point Humidity Pressure Visibility Wind Dir Wind Speed Gust Speed Precip Events Conditions
12:50 AM 51 °F 49 °F 91% 29.57 in 5 mi East 13.8 mph - - Rain Light Rain
3:50 AM 51 °F 50 °F 97% 29.53 in 4 mi ENE 10.4 mph - - Rain Light Rain Showers
6:50 AM 52 °F 51 °F 95% 29.54 in 3 mi NNE 6.9 mph - - Rain Light Rain
7:50 AM 51.8 °F 50.0 °F 94% 29.53 in 5.0 mi NNE 9.2 mph - N/A Rain Rain
8:50 AM 51.8 °F 50.0 °F 94% 29.56 in 3.7 mi NNE 11.5 mph - N/A Rain Heavy Rain
9:50 AM 53 °F 51 °F 92% 29.58 in 3 mi NNE 8.1 mph - - Rain Rain
9:50 AM 51.8 °F 51.8 °F 100% 29.56 in 3.1 mi NNE 8.1 mph - N/A Rain Rain
10:50 AM 53.6 °F 51.8 °F 94% 29.59 in 3.1 mi North 4.6 mph - N/A Rain Light Rain
11:50 AM 53.6 °F 53.6 °F 100% 29.62 in 4.3 mi North 4.6 mph - N/A Rain Light Rain
12:50 PM 55 °F 54 °F 94% 29.64 in 6 mi North 6.9 mph - - Rain Light Rain
1:50 PM 55.4 °F 53.6 °F 94% 29.65 in 6.2 mi North 11.5 mph - N/A   Mostly Cloudy
2:50 PM 55.4 °F 53.6 °F 94% 29.68 in 6.2 mi North 11.5 mph - N/A   Mostly Cloudy
3:50 PM 54 °F 52 °F 92% 29.73 in 6 mi North 12.7 mph - - Rain Light Rain
3:50 PM 55.4 °F 51.8 °F 88% 29.71 in 6.2 mi North 12.7 mph - N/A Rain Light Rain
4:50 PM 53.6 °F 51.8 °F 94% 29.77 in 2.5 mi NNW 16.1 mph 27.6 mph N/A Rain Rain
5:50 PM 53.6 °F 50.0 °F 88% 29.80 in 6.2 mi NNW 13.8 mph 25.3 mph N/A   Mostly Cloudy
6:50 PM 53 °F 50 °F 85% 29.86 in 6 mi NNW 13.8 mph - -   Partly Cloudy
6:50 PM 53.6 °F 50.0 °F 88% 29.83 in 6.2 mi NNW 13.8 mph - N/A   Mostly Cloudy
7:50 PM 51.8 °F 48.2 °F 88% 29.89 in 6.2 mi North 13.8 mph - N/A   Scattered Clouds
8:50 PM 51.8 °F 46.4 °F 82% 29.92 in 6.2 mi North 11.5 mph - N/A   Partly Cloudy
9:50 PM 51 °F 47 °F 82% 29.97 in 9 mi NNW 9.2 mph - -   Scattered Clouds
9:50 PM 51.8 °F 46.4 °F 82% 29.95 in 6.2 mi NNW 9.2 mph - N/A   Partly Cloudy
10:50 PM 50.0 °F 46.4 °F 87% 29.98 in 6.2 mi North 6.9 mph - N/A   Partly Cloudy
11:50 PM 48.2 °F 46.4 °F 93% 30.01 in 6.2 mi NNW 8.1 mph - N/A   Partly Cloudy